Date String (YYYY-MM-DD hh:mm:ss) UTC,Instrument flags,absolute air pressure of the measurement (hPa),sample flow rate (lpm),inlet stack bypass flow (lpm),air temperature of the measurement (°C),ambient temperature measured by the external sensor (°C),aerosol sample conditioner tube jacket temperature (°C),OPC LED temperature (°C),internal box temperature (°C),relative humidity of the measurement (%),span deviation,mass concentration of particles derived from Lorenz-Mie calculation of OPC scattering (μg/m³),mass concentration of particles derived from Lorenz-Mie calculation of OPC scattering (μg/m³),mass concentration of particles derived from Lorenz-Mie calculation of OPC scattering (μg/m³)
DateTimeUTC,F1_M11,P_M11,Q1_M11,Q2_M11,T1_M11,T2_M11,T3_M11,T4_M11,T5_M11,U1_M11,ZSPAN_M11,X0_M11,X2_M11,X1_M11
2023-10-10 03:00:00,SystemResetWarning,0825.7,5.00,000.00,028.2,026.5,000.0,036.8,030.0,11.2,0000.0,0008.74,0004.15,0003.55
2023-10-10 03:01:00,SystemResetWarning,0825.7,5.00,000.00,028.2,026.6,000.0,036.8,030.0,11.3,0000.0,0008.53,0004.10,0003.53
2023-10-10 03:02:00,SystemResetWarning,0825.7,4.99,000.00,028.2,026.8,000.0,036.8,030.0,11.3,0000.0,0008.47,0004.06,0003.51
2023-10-10 03:03:00,SystemResetWarning,0825.6,4.98,000.00,028.3,026.9,000.0,036.8,030.1,11.2,0000.0,0008.89,0004.08,0003.51
2023-10-10 03:04:00,SystemResetWarning,0825.7,5.00,000.00,028.3,027.0,000.0,036.8,030.1,11.2,0000.0,0008.98,0004.07,0003.51
2023-10-10 03:05:00,SystemResetWarning,0825.6,5.01,000.00,028.3,027.1,000.0,036.8,030.2,11.1,0000.0,0009.84,0004.08,0003.51
2023-10-10 03:06:00,SystemResetWarning,0825.6,5.00,000.00,028.4,027.1,000.0,036.8,030.2,11.1,0000.0,0010.16,0004.08,0003.51
2023-10-10 03:07:00,SystemResetWarning,0825.7,5.01,000.00,028.4,027.2,000.0,036.8,030.2,11.1,0000.0,0010.61,0004.09,0003.51
2023-10-10 03:08:00,SystemResetWarning,0825.6,5.00,000.00,028.4,027.2,000.0,036.8,030.2,11.1,0000.0,0011.05,0004.11,0003.52
2023-10-10 03:09:00,SystemResetWarning,0825.6,5.00,000.00,028.4,027.3,000.0,036.9,030.3,11.1,0000.0,0011.36,0004.11,0003.53
2023-10-10 03:10:00,SystemResetWarning,0825.6,5.00,000.00,028.5,027.3,000.0,036.9,030.3,11.0,0000.0,0011.17,0004.13,0003.54
2023-10-10 03:11:00,SystemResetWarning,0825.7,4.99,000.00,028.5,027.4,000.0,036.9,030.3,11.0,0000.0,0010.76,0004.13,0003.55
2023-10-10 03:12:00,SystemResetWarning,0825.7,5.00,000.00,028.5,027.4,000.0,036.9,030.3,11.0,0000.0,0011.13,0004.20,0003.56
2023-10-10 03:13:00,SystemResetWarning,0825.7,5.00,000.00,028.6,027.4,000.0,036.9,030.4,11.1,0000.0,0011.26,0004.23,0003.57
2023-10-10 03:14:00,SystemResetWarning,0825.7,5.00,000.00,028.6,027.1,000.0,037.0,030.4,11.2,0000.0,0012.13,0004.23,0003.59
2023-10-10 03:15:00,SystemResetWarning,0825.6,5.00,000.00,028.6,025.2,000.0,036.9,030.2,11.0,0000.0,0011.88,0004.20,0003.58
2023-10-10 03:16:00,SystemResetWarning,0825.6,5.00,000.00,028.5,024.3,000.0,036.8,030.0,10.9,0000.0,0011.53,0004.23,0003.59
2023-10-10 03:17:00,SystemResetWarning,0825.6,5.01,000.00,028.4,024.4,000.0,036.8,029.8,11.0,0000.0,0010.91,0004.24,0003.59
2023-10-10 03:18:00,SystemResetWarning,0825.6,5.00,000.00,028.3,024.7,000.0,036.8,029.7,11.0,0000.0,0011.02,0004.28,0003.59
2023-10-10 03:19:00,SystemResetWarning,0825.6,4.99,000.00,028.2,025.1,000.0,036.8,029.8,11.0,0000.0,0011.21,0004.29,0003.58
2023-10-10 03:20:00,SystemResetWarning,0825.6,4.99,000.00,028.2,025.4,000.0,036.8,029.8,10.9,0000.0,0010.69,0004.29,0003.58
2023-10-10 03:21:00,SystemResetWarning,0825.6,5.00,000.00,028.2,025.8,000.0,036.8,029.9,11.0,0000.0,0010.58,0004.29,0003.57
2023-10-10 03:22:00,SystemResetWarning,0825.6,5.00,000.00,028.2,026.0,000.0,036.8,029.9,11.2,0000.0,0011.19,0004.29,0003.57
2023-10-10 03:23:00,SystemResetWarning,0825.6,5.01,000.00,028.2,026.2,000.0,036.8,029.9,11.2,0000.0,0011.03,0004.26,0003.57
2023-10-10 03:24:00,SystemResetWarning,0825.7,5.01,000.00,028.2,026.4,000.0,036.8,030.0,11.2,0000.0,0010.94,0004.26,0003.57
2023-10-10 03:25:00,SystemResetWarning,0825.6,5.00,000.00,028.2,026.6,000.0,036.8,030.0,11.1,0000.0,0009.99,0004.25,0003.57
2023-10-10 03:26:00,SystemResetWarning,0825.6,5.00,000.00,028.2,026.7,000.0,036.8,030.0,11.0,0000.0,0010.64,0004.27,0003.58
2023-10-10 03:27:00,SystemResetWarning,0825.6,5.00,000.00,028.3,026.8,000.0,036.8,030.1,11.0,0000.0,0011.47,0004.25,0003.58
2023-10-10 03:28:00,SystemResetWarning,0825.7,4.99,000.00,028.3,026.9,000.0,036.8,030.1,10.9,0000.0,0011.56,0004.30,0003.58
2023-10-10 03:29:00,SystemResetWarning,0825.6,5.00,000.00,028.3,027.0,000.0,036.8,030.1,10.9,0000.0,0011.33,0004.30,0003.60
2023-10-10 03:30:00,SystemResetWarning,0825.6,4.99,000.00,028.3,027.1,000.0,036.8,030.1,10.8,0000.0,0011.37,0004.27,0003.60
2023-10-10 03:31:00,SystemResetWarning,0825.7,5.00,000.00,028.4,027.1,000.0,036.8,030.2,10.8,0000.0,0011.46,0004.28,0003.61
2023-10-10 03:32:00,SystemResetWarning,0825.7,5.00,000.00,028.4,027.2,000.0,036.8,030.2,10.9,0000.0,0011.54,0004.28,0003.61
2023-10-10 03:33:00,SystemResetWarning,0825.7,5.00,000.00,028.4,027.2,000.0,036.9,030.2,10.8,0000.0,0010.92,0004.28,0003.62
2023-10-10 03:34:00,SystemResetWarning,0825.8,5.00,000.00,028.5,027.3,000.0,036.9,030.3,10.7,0000.0,0010.75,0004.27,0003.62
2023-10-10 03:35:00,SystemResetWarning,0825.8,5.01,000.00,028.5,027.3,000.0,036.9,030.3,10.8,0000.0,0010.85,0004.30,0003.63
2023-10-10 03:36:00,SystemResetWarning,0825.8,5.01,000.00,028.5,027.4,000.0,036.9,030.3,10.8,0000.0,0010.70,0004.29,0003.63
2023-10-10 03:37:00,SystemResetWarning,0825.8,5.00,000.00,028.6,027.4,000.0,036.9,030.3,10.8,0000.0,0010.25,0004.30,0003.64
2023-10-10 03:38:00,SystemResetWarning,0825.9,5.00,000.00,028.6,027.4,000.0,037.0,030.3,11.0,0000.0,0009.09,0004.32,0003.64
2023-10-10 03:39:00,SystemResetWarning,0825.9,4.99,000.00,028.6,027.5,000.0,037.0,030.4,11.2,0000.0,0008.95,0004.26,0003.63
2023-10-10 03:40:00,SystemResetWarning,0825.9,5.00,000.00,028.6,027.5,000.0,037.0,030.4,11.1,0000.0,0008.77,0004.21,0003.62
2023-10-10 03:41:00,SystemResetWarning,0825.9,5.00,000.00,028.7,027.4,000.0,037.0,030.4,11.1,0000.0,0008.04,0004.19,0003.61
2023-10-10 03:42:00,SystemResetWarning,0825.9,5.00,000.00,028.7,025.6,000.0,037.0,030.3,11.1,0000.0,0008.28,0004.19,0003.61
2023-10-10 03:43:00,SystemResetWarning,0825.8,5.01,000.00,028.6,024.4,000.0,036.9,030.1,11.2,0000.0,0008.40,0004.20,0003.61
2023-10-10 03:44:00,SystemResetWarning,0825.8,5.00,000.00,028.5,024.4,000.0,036.9,029.9,11.2,0000.0,0008.38,0004.20,0003.61
2023-10-10 03:45:00,SystemResetWarning,0825.8,4.99,000.00,028.3,024.7,000.0,036.9,029.8,11.3,0000.0,0008.35,0004.20,0003.61
2023-10-10 03:46:00,SystemResetWarning,0825.8,5.00,000.00,028.3,025.1,000.0,036.9,029.8,11.3,0000.0,0008.28,0004.19,0003.60
2023-10-10 03:47:00,SystemResetWarning,0825.8,5.00,000.00,028.3,025.4,000.0,036.9,029.9,11.3,0000.0,0008.29,0004.20,0003.59
2023-10-10 03:48:00,SystemResetWarning,0825.8,5.00,000.00,028.2,025.7,000.0,036.9,029.9,11.4,0000.0,0008.39,0004.20,0003.59
2023-10-10 03:49:00,SystemResetWarning,0825.8,5.00,000.00,028.2,026.0,000.0,036.8,029.9,11.4,0000.0,0009.41,0004.19,0003.58
2023-10-10 03:50:00,SystemResetWarning,0825.8,5.00,000.00,028.2,026.2,000.0,036.8,030.0,11.4,0000.0,0009.56,0004.18,0003.57
2023-10-10 03:51:00,SystemResetWarning,0825.8,5.01,000.00,028.3,026.4,000.0,036.8,030.0,11.5,0000.0,0009.62,0004.18,0003.56
2023-10-10 03:52:00,SystemResetWarning,0825.7,5.00,000.00,028.3,026.6,000.0,036.8,030.1,11.5,0000.0,0009.70,0004.21,0003.56
2023-10-10 03:53:00,SystemResetWarning,0825.7,4.99,000.00,028.3,026.7,000.0,036.8,030.1,11.5,0000.0,0009.67,0004.17,0003.56
2023-10-10 03:54:00,SystemResetWarning,0825.7,4.99,000.00,028.3,026.8,000.0,036.8,030.1,11.5,0000.0,0009.70,0004.13,0003.55
2023-10-10 03:55:00,SystemResetWarning,0825.8,5.00,000.00,028.3,026.9,000.0,036.8,030.1,11.5,0000.0,0010.12,0004.10,0003.55
2023-10-10 03:56:00,SystemResetWarning,0825.8,4.99,000.00,028.4,027.0,000.0,036.8,030.1,11.4,0000.0,0010.53,0004.08,0003.54
2023-10-10 03:57:00,SystemResetWarning,0825.7,5.00,000.00,028.4,027.0,000.0,036.9,030.2,11.4,0000.0,0010.66,0004.06,0003.54
2023-10-10 03:58:00,SystemResetWarning,0825.7,5.00,000.00,028.4,027.1,000.0,036.9,030.2,11.4,0000.0,0010.73,0004.06,0003.53
2023-10-10 03:59:00,SystemResetWarning,0825.7,5.00,000.00,028.4,027.2,000.0,036.9,030.2,11.4,0000.0,0010.54,0004.04,0003.53
